Yeovilton, United Kingdom

10:37 PM BST on June 21, 2018 (GMT +0100)
Yeovil Radar Navy

Weather History for EGDY - October, 2017

Change the Weather History Date:

Monday, October 9, 2017

  Actual Average Record
Temperature  
Mean Temperature 54 °F -  
Max Temperature 60 °F 55 °F 66 °F (2011)
Min Temperature 48 °F 42 °F 35 °F (1998)
Degree Days  
Heating Degree Days 11    
Growing Degree Days 4 (Base 50)    
Moisture  
Dew Point 52 °F    
Average Humidity 85    
Maximum Humidity 100    
Minimum Humidity 60    
Precipitation  
Precipitation 0.00 in - - ()
Sea Level Pressure  
Sea Level Pressure 30.10 in    
Wind  
Wind Speed 4 mph ()    
Max Wind Speed 12 mph    
Max Gust Speed -    
Visibility 9.2 miles    
Events Rain    
Averages and records for this station are not official NWS values.
T = Trace of Precipitation, MM = Missing Value Source: Averaged Metar Reports

Daily Weather History Graph

Daily Weather History Graph

Search for Another Location

Airport or City:

Astronomy

Oct. 09, 2017 Rise Set
Actual Time 7:24 AM BST 6:30 PM BST
Civil Twilight 6:50 AM BST 7:03 PM BST
Nautical Twilight 6:12 AM BST 7:41 PM BST
Astronomical Twilight 5:34 AM BST 8:20 PM BST
Moon 9:07 PM BST (10/9) 11:37 AM BST (10/9)
Length of Visible Light 12h 12m
Length of Day
11h 06m
Waning Gibbous, 83% of the Moon is Illuminated
Oct 9
Waning Gibbous
Oct 12
Last Quarter
Oct 19
New
Oct 27
First Quarter
Nov 4
Full

Hourly Weather History & Observations

Time (BST) Temp. Dew Point Humidity Pressure Visibility Wind Dir Wind Speed Gust Speed Precip Events Conditions
12:00 AM 51 °F 50 °F 95% 30.17 in 15 mi ESE 2.3 mph - -   Mostly Cloudy
12:50 AM 51.8 °F 51.8 °F 100% 30.15 in 6.2 mi SE 3.5 mph - N/A   Overcast
1:00 AM 52 °F 51 °F 95% 30.17 in 11 mi SE 3.5 mph - -   Overcast
1:50 AM 53.6 °F 51.8 °F 94% 30.15 in 6.2 mi ESE 3.5 mph - N/A   Overcast
2:00 AM 53 °F 52 °F 95% 30.16 in 14 mi ESE 3.5 mph - -   Overcast
2:50 AM 53.6 °F 51.8 °F 94% 30.12 in 6.2 mi SE 2.3 mph - N/A   Mostly Cloudy
3:00 AM 54 °F 53 °F 93% 30.14 in 14 mi SE 2.3 mph - -   Partly Cloudy
3:50 AM 53.6 °F 53.6 °F 100% 30.12 in 6.2 mi SSW 3.5 mph - N/A   Mostly Cloudy
4:00 AM 54 °F 53 °F 96% 30.13 in 16 mi SSW 3.5 mph - -   Partly Cloudy
4:50 AM 55.4 °F 53.6 °F 94% 30.09 in 6.2 mi SSE 3.5 mph - N/A   Mostly Cloudy
5:50 AM 55.4 °F 53.6 °F 94% 30.09 in 6.2 mi West 2.3 mph - N/A   Overcast
6:00 AM 55 °F 53 °F 92% 30.12 in 9 mi West 2.3 mph - -   Overcast
6:50 AM 55.4 °F 53.6 °F 94% 30.09 in 6.2 mi Calm Calm - N/A   Overcast
7:00 AM 55 °F 54 °F 93% 30.11 in 7 mi Calm Calm - -   Overcast
7:50 AM 55.4 °F 53.6 °F 94% 30.09 in 6.2 mi SSE 2.3 mph - N/A   Mostly Cloudy
8:22 AM 55.4 °F 55.4 °F 100% 30.09 in 6.2 mi SSW 2.3 mph - N/A   Light Drizzle
8:50 AM 57.2 °F 55.4 °F 94% 30.09 in 6.2 mi SW 3.5 mph - N/A   Mostly Cloudy
9:00 AM 57 °F 55 °F 90% 30.12 in 7 mi SW 3.5 mph - -   Mostly Cloudy
9:50 AM 55.4 °F 53.6 °F 94% 30.12 in 6.2 mi WNW 10.4 mph - N/A   Mostly Cloudy
10:00 AM 56 °F 54 °F 92% 30.13 in 6 mi WNW 10.4 mph - -   Overcast
10:39 AM 57.2 °F 53.6 °F 88% 30.12 in 6.2 mi WNW 6.9 mph - N/A   Mostly Cloudy
10:50 AM 57.2 °F 53.6 °F 88% 30.12 in 6.2 mi WNW 6.9 mph - N/A   Mostly Cloudy
11:00 AM 57 °F 53 °F 81% 30.13 in 12 mi WNW 6.9 mph - -   Mostly Cloudy
11:50 AM 59.0 °F 51.8 °F 77% 30.12 in 6.2 mi WNW 6.9 mph - N/A   Mostly Cloudy
12:00 PM 59 °F 52 °F 69% 30.12 in 16 mi WNW 6.9 mph - -   Mostly Cloudy
12:50 PM 59.0 °F 50.0 °F 72% 30.09 in 6.2 mi West 11.5 mph - N/A   Mostly Cloudy
1:00 PM 59 °F 50 °F 64% 30.12 in 16 mi West 11.5 mph - -   Mostly Cloudy
1:50 PM 59.0 °F 50.0 °F 72% 30.09 in 6.2 mi NW 8.1 mph - N/A   Mostly Cloudy
2:00 PM 59 °F 51 °F 66% 30.11 in 16 mi NW 8.1 mph - -   Mostly Cloudy
2:50 PM 59.0 °F 48.2 °F 67% 30.09 in 6.2 mi WNW 10.4 mph - N/A   Mostly Cloudy
3:00 PM 59 °F 49 °F 60% 30.10 in 16 mi WNW 10.4 mph - -   Mostly Cloudy
3:50 PM 59.0 °F 50.0 °F 72% 30.06 in 6.2 mi WNW 8.1 mph - N/A   Overcast
4:00 PM 59 °F 49 °F 62% 30.09 in 16 mi WNW 8.1 mph - -   Mostly Cloudy
4:50 PM 59.0 °F 48.2 °F 67% 30.06 in 6.2 mi WNW 8.1 mph - N/A   Mostly Cloudy
5:50 PM 59.0 °F 50.0 °F 72% 30.06 in 6.2 mi West 4.6 mph - N/A   Scattered Clouds
6:50 PM 55.4 °F 50.0 °F 82% 30.06 in 6.2 mi West 4.6 mph - N/A   Mostly Cloudy
7:00 PM 56 °F 50 °F 75% 30.09 in 16 mi West 4.6 mph - -   Partly Cloudy
7:50 PM 55.4 °F 50.0 °F 82% 30.06 in 6.2 mi WSW 3.5 mph - N/A   Mostly Cloudy
8:00 PM 55 °F 51 °F 80% 30.09 in 16 mi WSW 3.5 mph - -   Scattered Clouds
8:50 PM 53.6 °F 51.8 °F 94% 30.06 in 6.2 mi SW 3.5 mph - N/A Rain Light Rain
9:00 PM 54 °F 51 °F 86% 30.08 in 16 mi SW 3.5 mph - - Rain Light Rain
9:50 PM 53.6 °F 51.8 °F 94% 30.06 in 6.2 mi WSW 2.3 mph - N/A   Mostly Cloudy
10:50 PM 53.6 °F 50.0 °F 88% 30.06 in 6.2 mi SSW 4.6 mph - N/A   Scattered Clouds
11:00 PM 53 °F 50 °F 86% 30.07 in 16 mi SSW 4.6 mph - -   Scattered Clouds
11:34 PM 51.8 °F 50.0 °F 94% 30.06 in 6.2 mi SW 4.6 mph - N/A   Mostly Cloudy
11:50 PM 53.6 °F 50.0 °F 88% 30.06 in 6.2 mi SW 6.9 mph - N/A   Mostly Cloudy